EHI
0 0 0 0 0 0 0 0 0 0 1 0 0 1 3 5 5 3 3 3 3 2 1 0 0 0 0 0 0 0 0 0 0 0 0 0 0 0 0 0 0 0 0 0
0 0 0 0 0 0 0 0 0 0 1 0 0 1 4 5 3 3 3 3 2 1 0 0 0 0 0 0 0 0 0 0 0 0 0 0 0 0 0 0 0 0 0 0
0 0 0 0 0 0 0 0 0 0 0 0 0 1 4 4 2 1 2 2 1 0 0 0 0 0 0 0 0 0 0 0 0 0 0 0 0 0 0 0 0 0 0 0
0 0 0 0 1 1 0 0 0 0 0 0 0 1 3 3 1 0 1 1 0 0 0 0 0 0 0 0 0 0 0 0 0 0 0 0 0 0 0 0 0 0 0 0
0 0 0 0 1 1 0 0 0 0 0 0 1 1 1 1 0 0 0 0 0 0 0 0 0 0 0 0 0 0 0 0 0 0 0 0 0 0 0 0 0 0 0 0
0 0 0 0 0 0 0 0 0 0 0 0 1 1 0 0 0 0 0 0 0 0 0 0 0 0 0 0 0 0 0 0 0 0 0 0 0 0 0 0 0 0 0 0
0 0 0 0 0 0 0 0 0 0 0 0 0 0 0 0 0 0 0 0 0 0 0 0 0 0 0 0 0 0 0 0 0 0 0 0 0 0 0 0 0 0 0 0
0 0 0 0 0 0 0 0 0 0 0 0 0 0 0 1 0 0 0 0 0 0 0 0 0 0 0 0 0 0 0 0 0 0 0 0 0 0 0 0 0 0 0 0
0 0 0 0 0 0 0 0 0 0 0 0 0 0 0 0 0 0 0 0 0 0 0 0 0 0 0 0 0 0 0 0 0 0 0 0 0 0 0 0 0 0 0 0
0 0 0 0 0 0 0 0 0 0 0 1 1 0 0 0 0 0 0 0 0 0 0 0 0 0 0 0 0 0 0 0 0 0 0 0 0 0 0 0 0 0 0 0
0 0 0 0 0 0 0 0 0 0 0 1 1 0 0 0 0 0 0 0 0 0 0 0 0 0 0 0 0 0 0 0 0 0 0 0 0 0 0 0 0 0 0 0
0 0 0 0 0 0 0 0 0 0 0 0 0 0 0 0 0 0 0 0 0 0 0 0 0 0 0 0 0 0 0 0 0 0 0 0 0 0 0 0 0 0 0 0
0 0 0 0 0 0 0 0 0 0 0 0 0 0 0 0 0 0 0 0 0 0 0 0 0 0 0 0 0 0 0 0 0 0 0 0 0 0 0 0 0 0 0 0
0 0 0 0 0 0 0 0 0 0 0 0 0 0 0 0 0 0 0 0 0 0 0 0 0 0 0 0 0 0 0 0 0 0 0 0 0 0 0 0 0 0 0 0
0 0 0 0 0 0 0 0 0 0 0 0 0 0 0 0 0 0 0 0 0 0 0 0 0 0 0 0 0 0 0 0 0 0 0 0 0 0 0 0 0 0 0 0
0 0 0 0 0 0 0 0 0 0 0 0 0 0 0 0 0 0 0 0 0 0 0 0 0 0 0 0 0 0 0 0 0 0 0 0 0 0 0 0 0 0 0 0
0 0 0 0 0 0 0 0 0 0 0 0 0 0 0 0 0 0 0 0 0 0 0 0 0 0 0 0 0 0 0 0 0 0 0 0 0 0 0 0 0 0 0 0
0 0 0 0 0 0 0 0 0 0 0 0 0 0 0 0 0 0 0 0 0 0 0 0 0 0 0 0 0 0 0 0 0 0 0 0 0 0 0 0 0 0 0 0
0 0 0 0 0 0 0 0 0 0 0 0 0 0 0 0 0 0 0 0 0 0 0 0 0 0 0 0 0 0 0 0 0 0 0 0 0 0 0 0 0 0 0 0
0 0 0 0 0 0 0 0 0 0 0 0 0 0 0 0 0 0 0 0 0 0 0 0 0 0 0 0 0 0 0 0 0 0 0 0 0 0 0 0 0 0 0 0
0 0 0 0 0 0 0 0 0 0 0 0 0 0 0 0 0 0 0 0 0 0 0 0 0 0 0 0 0 0 0 0 0 0 0 0 0 0 0 0 0 0 0 0
0 0 0 0 0 0 0 0 0 0 0 0 0 0 0 0 0 0 0 0 0 0 0 0 0 0 0 0 0 0 0 0 0 0 0 0 0 0 0 0 0 0 0 0
0 0 0 0 0 0 0 0 0 0 0 0 0 0 0 0 0 0 0 0 0 0 0 0 0 0 0 0 0 0 0 0 0 0 0 0 0 0 0 0 0 0 0 0
0 0 0 0 0 0 0 0 0 0 0 0 0 0 0 0 0 0 0 0 0 0 0 0 0 0 0 0 0 0 0 0 0 0 0 0 0 0 0 0 0 0 0 0
0 0 0 0 0 0 0 0 0 0 0 0 0 0 0 0 0 0 0 0 0 0 0 0 0 0 0 0 0 0 0 0 0 0 0 0 0 0 0 0 0 0 0 0
0 0 0 0 0 0 0 0 0 0 0 0 0 0 0 0 0 0 0 0 0 0 0 0 0 0 0 0 0 0 0 0 0 0 0 0 0 0 0 0 0 0 0 0
0 0 0 0 0 0 0 0 0 0 0 0 0 0 0 0 0 0 0 0 0 0 0 0 0 0 0 0 0 0 0 0 0 0 0 0 0 0 0 0 0 0 0 0
Wind_Speed
3 3 2 3 4 3 2 4 5 5 5 6 5 5 6 6 7 8 8 8 8 7 6 5 5 4 4 4 4 3 4 3 2 1 2 2 2 2 3 3 3 3 3 3
2 2 2 3 5 2 1 2 3 3 2 3 4 4 5 7 9 9 8 8 7 7 7 6 5 5 5 4 3 3 3 2 2 2 2 2 2 2 3 3 3 3 3 3
2 4 3 3 3 1 1 1 4 3 3 4 5 7 8 8 9 9 8 8 8 7 6 6 5 5 5 4 4 4 3 2 2 2 2 2 2 3 3 3 3 3 3 3
0 3 1 4 1 3 3 2 2 3 4 5 6 5 3 5 7 8 8 8 7 6 6 5 4 4 5 4 4 4 3 2 2 2 2 2 2 2 2 2 2 2 2 2
2 0 3 2 1 1 2 1 1 5 5 5 6 5 2 2 5 7 7 7 6 6 6 5 5 5 5 4 4 3 3 2 2 2 2 2 2 1 1 2 2 2 1 2
3 2 3 4 2 0 4 1 1 6 7 7 5 3 3 3 6 7 7 7 7 6 5 5 5 5 6 5 4 3 2 2 2 2 2 2 2 1 1 1 1 2 2 2
3 3 4 3 2 2 2 5 3 5 7 6 3 4 5 7 6 7 7 7 7 7 5 4 4 5 5 4 3 2 2 2 2 2 2 2 1 1 1 1 2 2 3 3
3 2 6 3 2 3 5 2 5 4 5 5 5 6 7 8 8 8 7 7 7 6 5 4 4 5 5 3 2 2 3 2 2 1 1 2 2 1 2 2 2 2 3 3
6 6 5 1 4 3 5 5 4 4 5 8 8 7 8 7 8 7 7 6 6 6 5 3 3 4 5 3 3 3 3 2 1 1 1 2 2 1 1 1 1 1 1 1
2 2 2 4 4 4 5 6 5 6 7 8 8 8 8 7 6 6 6 5 5 6 5 4 3 4 4 4 3 4 3 2 1 2 2 2 1 1 1 1 0 0 0 0
2 3 4 3 5 6 7 8 8 7 7 8 10 8 7 7 7 6 5 5 5 6 5 5 4 4 4 4 4 4 3 2 1 1 2 1 1 1 0 1 2 2 2 2
6 7 6 5 6 8 9 8 9 9 7 7 8 9 7 6 5 6 5 5 5 5 5 5 5 4 3 4 5 5 3 2 1 1 1 1 1 1 3 1 2 2 3 3
6 6 6 7 7 7 8 8 8 8 8 7 6 7 8 6 5 5 5 6 6 6 5 5 5 4 3 4 5 5 3 2 2 1 2 1 1 1 1 3 3 2 2 4
8 8 7 6 6 7 9 9 8 7 7 8 7 7 7 6 5 6 5 5 6 5 5 5 5 4 3 4 4 4 3 3 2 2 2 2 2 2 2 2 2 3 3 3
6 7 8 7 8 8 8 8 8 7 7 7 7 7 7 7 6 6 5 5 5 5 5 5 5 4 4 4 4 4 3 2 2 2 2 2 2 2 2 3 3 2 2 3
7 8 9 10 9 9 9 9 8 7 7 7 7 8 8 7 6 5 5 6 6 5 5 5 5 5 4 4 4 3 3 4 3 2 1 1 2 2 2 2 3 3 3 3
10 9 9 9 9 9 9 9 9 8 7 8 8 8 7 7 6 5 5 5 6 5 5 5 5 5 5 5 4 3 2 3 4 2 2 2 2 3 2 2 3 3 4 5
11 11 11 12 10 10 9 9 9 8 8 8 8 8 8 7 7 6 6 5 4 3 3 5 5 5 5 5 4 3 3 3 2 3 3 3 3 3 3 3 3 4 4 4
10 11 10 10 10 10 9 9 9 8 8 8 8 8 7 7 7 6 6 6 5 5 4 5 7 6 5 5 5 3 3 3 2 3 3 4 4 3 3 3 4 4 4 4
10 10 10 10 9 9 9 9 9 8 8 8 8 7 6 6 7 6 6 6 6 6 6 5 6 5 5 5 5 3 3 3 3 3 3 3 4 4 4 4 4 4 4 4
11 10 10 10 9 9 10 10 9 8 8 9 9 8 8 6 7 6 5 4 5 6 6 7 5 4 4 4 5 3 3 4 4 4 4 4 4 4 4 4 4 4 4 4
9 9 10 9 9 8 8 9 9 9 8 8 8 7 7 6 6 6 6 5 5 7 6 5 4 6 7 6 3 3 4 4 4 3 4 4 4 4 5 5 4 4 4 4
8 8 9 9 9 9 8 8 9 8 8 8 8 8 7 7 6 6 5 5 5 8 6 5 7 10 11 6 4 4 5 5 4 4 5 5 5 5 5 6 5 5 4 5
7 8 8 8 8 8 8 7 7 6 7 8 8 8 7 5 4 5 5 7 9 9 6 7 11 12 11 5 4 4 5 5 5 5 5 5 5 5 5 5 5 5 5 6
8 7 7 9 8 7 7 7 6 5 6 5 6 7 6 6 6 5 5 6 9 9 6 8 12 12 8 5 6 6 6 6 6 5 5 5 6 6 5 5 6 6 6 6
7 7 7 7 7 6 5 5 4 4 5 4 4 4 4 4 5 5 4 6 8 8 7 5 6 7 6 6 7 7 6 6 7 7 7 7 7 7 6 6 8 6 6 6
7 6 5 4 4 5 5 5 5 5 5 6 5 5 5 5 5 5 5 5 5 6 5 5 5 6 6 7 7 7 7 7 7 7 7 7 7 7 7 8 7 6 6 6
Wind_Direction
232 255 276 294 306 304 178 181 188 209 202 215 190 173 163 151 144 142 145 148 148 148 144 140 134 128 128 126 123 118 107 100 94 91 80 70 50 28 23 28 37 44 49 36
326 296 322 342 335 330 139 149 156 148 222 203 156 145 152 159 156 159 163 159 154 152 147 145 144 140 132 127 132 122 111 109 103 92 78 64 45 39 35 33 35 46 46 38
285 306 4 350 331 15 98 130 150 177 200 149 142 161 175 173 167 164 161 155 154 150 150 149 151 146 143 141 130 117 115 117 107 100 88 69 58 52 48 44 46 45 35 43
218 20 311 248 278 102 92 44 87 115 148 149 148 144 147 151 153 158 156 152 150 147 147 147 141 137 134 129 122 119 115 121 116 107 99 81 73 62 50 53 56 46 33 35
116 126 271 281 287 131 115 4 96 133 141 128 117 87 55 125 145 157 155 150 146 144 141 139 137 136 125 119 113 113 115 118 120 116 108 95 88 73 65 66 53 37 24 37
127 165 238 249 286 125 95 300 208 143 149 149 128 137 209 168 134 130 130 131 132 130 124 130 134 129 122 120 113 121 135 130 122 114 112 109 107 87 68 77 63 46 37 31
157 203 258 268 277 80 139 231 185 148 152 157 171 187 165 141 129 127 125 126 127 127 129 137 133 124 122 124 135 152 135 113 105 103 116 122 98 74 78 69 58 47 44 23
154 190 247 280 94 155 209 159 130 129 136 134 126 116 122 129 131 129 125 125 126 126 128 134 132 128 130 143 153 134 117 108 103 109 134 118 102 70 66 72 71 51 44 21
174 205 225 187 145 156 136 122 127 135 133 127 124 123 125 129 133 133 134 134 132 133 135 142 145 139 142 161 144 124 111 109 103 68 78 107 117 111 71 68 74 52 59 25
113 195 147 123 114 107 118 125 133 132 134 131 126 130 128 132 133 134 136 138 138 139 145 156 159 152 157 160 141 125 118 113 102 102 78 57 68 108 125 127 90 56 100 66
135 170 119 119 130 126 115 113 118 125 127 133 129 131 134 139 143 143 143 145 145 150 158 166 163 159 163 157 140 131 130 128 118 117 125 91 60 33 165 220 199 180 198 199
198 197 162 173 161 135 126 129 130 125 121 132 138 140 137 143 149 150 151 148 147 153 158 162 159 158 167 162 148 142 141 151 161 155 159 144 120 21 7 330 293 230 214 206
173 160 146 148 143 128 130 137 137 136 141 142 141 139 139 143 149 147 149 150 156 164 167 162 157 159 171 164 151 150 162 179 181 177 182 192 184 172 302 336 344 323 259 225
132 121 123 139 144 138 134 138 135 135 142 145 145 140 138 138 144 148 157 162 161 159 158 158 158 171 179 159 153 159 170 186 187 204 208 205 206 208 209 216 267 298 297 260
142 138 145 142 134 134 135 132 131 136 145 146 147 146 148 149 156 162 163 156 148 151 158 159 164 184 184 160 157 167 174 196 206 219 224 222 224 224 226 223 226 244 272 286
142 131 133 136 143 143 142 143 145 150 150 149 153 158 159 157 159 160 161 158 155 166 173 171 179 190 181 167 165 173 193 216 216 215 235 248 248 245 249 236 228 229 236 242
142 150 150 153 155 154 155 157 158 159 156 156 162 160 154 150 153 162 169 171 171 178 179 178 189 190 181 178 176 183 196 224 232 231 241 246 252 253 252 241 231 233 239 235
159 163 164 164 163 160 159 158 159 158 160 163 158 155 157 161 169 177 175 167 160 169 184 187 188 182 181 181 183 189 197 214 224 229 241 252 257 253 246 238 237 240 250 251
157 160 163 164 162 157 159 161 162 161 160 156 155 162 169 174 176 175 167 163 169 187 211 201 187 181 188 196 190 191 199 215 231 240 241 255 263 260 252 249 249 249 246 240
163 163 162 163 160 156 158 160 157 156 159 157 157 160 166 175 174 172 170 181 198 201 199 193 185 189 198 204 197 192 201 215 232 246 250 252 254 259 261 257 252 251 245 236
162 163 162 162 162 159 159 157 156 160 162 161 165 173 178 181 176 170 170 197 223 203 194 195 192 196 202 203 201 205 211 220 233 241 245 249 250 255 260 259 253 248 244 240
157 159 159 156 152 154 158 157 160 163 164 167 173 174 173 178 181 183 194 201 207 196 190 195 199 204 204 200 203 213 223 229 237 243 249 251 251 255 259 258 254 251 246 241
149 149 149 152 153 154 154 158 161 163 167 172 175 177 180 185 182 182 207 214 197 197 195 203 207 206 206 205 210 219 228 233 237 242 246 247 247 247 250 253 252 251 247 244
144 147 149 149 142 142 152 165 167 169 172 174 179 180 177 179 194 204 200 198 198 198 204 209 208 209 207 210 216 224 232 236 239 243 247 248 246 246 247 248 251 251 249 249
145 145 144 144 148 160 168 167 162 169 172 178 184 186 184 182 187 200 195 196 198 197 207 214 212 212 209 213 220 228 233 237 242 245 248 249 248 247 247 245 244 245 247 248
148 152 156 160 162 163 162 159 165 173 169 175 191 195 192 190 188 185 185 192 193 196 201 204 204 207 213 221 227 232 235 241 246 246 246 247 248 249 250 249 250 247 245 246
141 142 143 147 160 164 163 164 170 180 179 178 189 199 193 189 187 190 190 191 193 202 206 204 204 209 216 224 231 237 240 241 242 244 246 247 246 246 247 248 247 247 247 248